sat.trackr.live / text

‹ back to catalog

CHUANGXIN 1-04 (CX-1-04)

NORAD 40137 · 2014-051B

PAYLOAD ACTIVE UNKNOWN

§ Identity

Operator
Country
PRC
Launch date
2014-09-04
Launch site
JSC
Launch vehicle
Mass (kg)
RCS (m²)
0.57

External: N2YO · Heavens-Above · Gunter

§ Orbital elements

Epoch: 2026-05-25T03:31:08.073408Z

Period
100.67 min
Inclination
98.7060°
Eccentricity
0.0021189
Mean motion
14.30404358 rev/d
Perigee alt
775.2 km
Apogee alt
805.6 km
Semi-major
7,168.5 km
B*
3.5477e-6
RAAN
146.9636°
Arg perigee
240.6338°
Mean anomaly
119.2728°
Rev number
61,125

§ Raw data

CHUANGXIN 1-04 (CX-1-04)1 40137U 14051B   26145.14662122 -.00000036  00000+0  35477-5 0  99982 40137  98.7060 146.9636 0021189 240.6338 119.2728 14.30404358611256

JSON: /api/v1/satellites/40137 · /tle

For live sub-satellite position, see the globe view (requires WebGL).

§ Visibility from observer

Set your observer location to see the next 7 days of passes ≥ 10°. The values pass through the URL so the page stays shareable.

No JS? Fill the form by hand. The geolocation button needs JavaScript.